,,,PA_Meas_PMT16A,,PR_Meas_QMR101_102,,RH_Meas_QMH101,,SR_Meas_QMS101,,TA_Meas_QMH101,,GenWind,,GenWind,
date,time,status,PA,status,PR,status,RH,status,SR,status,TA,status,DirAvg,status,SpdAvg,
2009-04-07, 00:00:04,VALID,1004,VALID,0,VALID,94.6973,VALID,0,VALID,23.3355,VALID,356,VALID,0,
2009-04-07, 00:01:04,VALID,1004.03,VALID,0,VALID,94.6897,VALID,0,VALID,23.3143,VALID,356,VALID,0,
2009-04-07, 00:02:04,VALID,1004.01,VALID,0,VALID,94.6897,VALID,0,VALID,23.3143,VALID,356,VALID,0,
2009-04-07, 00:03:04,VALID,1004,VALID,0,VALID,94.7278,VALID,0,VALID,23.3337,VALID,356,VALID,0,
2009-04-07, 00:04:04,VALID,1003.99,VALID,0,VALID,94.7202,VALID,0,VALID,23.3337,VALID,356,VALID,0,
2009-04-07, 00:05:04,VALID,1003.99,VALID,0,VALID,94.6973,VALID,0,VALID,23.3337,VALID,356,VALID,0,
2009-04-07, 00:06:04,VALID,1003.94,VALID,0,VALID,94.6973,VALID,0,VALID,23.3337,VALID,356,VALID,0,
2009-04-07, 00:07:04,VALID,1003.95,VALID,0,VALID,94.682,VALID,0,VALID,23.3337,VALID,356,VALID,0,
2009-04-07, 00:08:04,VALID,1003.96,VALID,0,VALID,94.6363,VALID,0,VALID,23.2736,VALID,356,VALID,0,
2009-04-07, 00:09:04,VALID,1003.94,VALID,0,VALID,94.5676,VALID,0,VALID,23.2559,VALID,356,VALID,0.430078,
2009-04-07, 00:10:04,VALID,1003.92,VALID,0,VALID,94.5371,VALID,0,VALID,23.217,VALID,356,VALID,0.401172,
2009-04-07, 00:11:04,VALID,1003.92,VALID,0,VALID,94.4989,VALID,0,VALID,23.1568,VALID,356,VALID,0.272656,
2009-04-07, 00:12:04,VALID,1003.92,VALID,0,VALID,94.5676,VALID,0,VALID,23.178,VALID,356,VALID,0.317969,
2009-04-07, 00:13:04,VALID,1003.9,VALID,0,VALID,94.6286,VALID,0,VALID,23.1586,VALID,356,VALID,0.193359,
2009-04-07, 00:14:04,VALID,1003.9,VALID,0,VALID,94.6515,VALID,0,VALID,23.178,VALID,356,VALID,0,
2009-04-07, 00:15:04,VALID,1003.88,VALID,0,VALID,94.6744,VALID,0,VALID,23.178,VALID,356,VALID,0,
2009-04-07, 00:16:04,VALID,1003.89,VALID,0,VALID,94.7278,VALID,0,VALID,23.2187,VALID,356,VALID,0,
2009-04-07, 00:17:04,VALID,1003.85,VALID,0,VALID,94.7125,VALID,0,VALID,23.1975,VALID,356,VALID,0,
2009-04-07, 00:18:04,VALID,1003.85,VALID,0,VALID,94.7354,VALID,0,VALID,23.2187,VALID,356,VALID,0,
2009-04-07, 00:19:04,VALID,1003.83,VALID,0,VALID,94.7431,VALID,0,VALID,23.1975,VALID,356,VALID,0,
2009-04-07, 00:20:04,VALID,1003.8,VALID,0,VALID,94.7812,VALID,0,VALID,23.178,VALID,356,VALID,0,
2009-04-07, 00:21:04,VALID,1003.76,VALID,0,VALID,94.7888,VALID,0,VALID,23.2187,VALID,356,VALID,0,
2009-04-07, 00:22:04,VALID,1003.77,VALID,0,VALID,94.9109,VALID,0,VALID,23.2771,VALID,356,VALID,0,
2009-04-07, 00:23:04,VALID,1003.75,VALID,0,VALID,94.9643,VALID,0,VALID,23.3143,VALID,356,VALID,0,
2009-04-07, 00:24:04,VALID,1003.74,VALID,0,VALID,94.9567,VALID,0,VALID,23.3337,VALID,356,VALID,0,
2009-04-07, 00:25:04,VALID,1003.71,VALID,0,VALID,94.9262,VALID,0,VALID,23.3337,VALID,356,VALID,0,
2009-04-07, 00:26:04,VALID,1003.7,VALID,0,VALID,94.8956,VALID,0,VALID,23.3532,VALID,356,VALID,0,
2009-04-07, 00:27:04,VALID,1003.7,VALID,0,VALID,94.8575,VALID,0,VALID,23.3337,VALID,356,VALID,0,
2009-04-07, 00:28:04,VALID,1003.72,VALID,0,VALID,94.7812,VALID,0,VALID,23.355,VALID,356,VALID,0,
2009-04-07, 00:29:04,VALID,1003.67,VALID,0,VALID,94.7888,VALID,0,VALID,23.3143,VALID,356,VALID,0,
2009-04-07, 00:30:04,VALID,1003.68,VALID,0,VALID,94.8346,VALID,0,VALID,23.2948,VALID,356,VALID,0,
2009-04-07, 00:31:04,VALID,1003.65,VALID,0,VALID,94.8956,VALID,0,VALID,23.3355,VALID,356,VALID,0,
2009-04-07, 00:32:04,VALID,1003.62,VALID,0,VALID,94.8575,VALID,0,VALID,23.3143,VALID,356,VALID,0,
2009-04-07, 00:33:04,VALID,1003.6,VALID,0,VALID,94.8575,VALID,0,VALID,23.2736,VALID,356,VALID,0,
2009-04-07, 00:34:04,VALID,1003.57,VALID,0,VALID,94.8346,VALID,0,VALID,23.2948,VALID,356,VALID,0,
2009-04-07, 00:35:04,VALID,1003.55,VALID,0,VALID,94.7736,VALID,0,VALID,23.2559,VALID,356,VALID,0,
2009-04-07, 00:36:04,VALID,1003.54,VALID,0,VALID,94.7507,VALID,0,VALID,23.2364,VALID,356,VALID,0,
2009-04-07, 00:37:04,VALID,1003.53,VALID,0,VALID,94.6973,VALID,0,VALID,23.178,VALID,356,VALID,0,
2009-04-07, 00:38:04,VALID,1003.49,VALID,0,VALID,94.7049,VALID,0,VALID,23.1391,VALID,356,VALID,0,
2009-04-07, 00:39:04,VALID,1003.47,VALID,0,VALID,94.6897,VALID,0,VALID,23.1002,VALID,356,VALID,0,
2009-04-07, 00:40:04,VALID,1003.46,VALID,0,VALID,94.6591,VALID,0,VALID,23.0807,VALID,356,VALID,0,
2009-04-07, 00:41:04,VALID,1003.48,VALID,0,VALID,94.682,VALID,0,VALID,23.0418,VALID,356,VALID,0,
2009-04-07, 00:42:04,VALID,1003.43,VALID,0,VALID,94.766,VALID,0,VALID,23.0418,VALID,356,VALID,0,
2009-04-07, 00:43:04,VALID,1003.44,VALID,0,VALID,94.8117,VALID,0,VALID,23.0613,VALID,356,VALID,0,
2009-04-07, 00:44:04,VALID,1003.42,VALID,0,VALID,94.8651,VALID,0,VALID,23.1002,VALID,356,VALID,0,
2009-04-07, 00:45:04,VALID,1003.43,VALID,0,VALID,94.9033,VALID,0,VALID,23.1197,VALID,356,VALID,0,
2009-04-07, 00:46:04,VALID,1003.43,VALID,0,VALID,94.8422,VALID,0,VALID,23.1002,VALID,356,VALID,0,
2009-04-07, 00:47:04,VALID,1003.42,VALID,0,VALID,94.7736,VALID,0,VALID,23.0613,VALID,356,VALID,0,
2009-04-07, 00:48:04,VALID,1003.41,VALID,0,VALID,94.8117,VALID,0,VALID,23.0807,VALID,356,VALID,0,
2009-04-07, 00:49:04,VALID,1003.41,VALID,0,VALID,94.9033,VALID,0,VALID,23.1002,VALID,356,VALID,0,
2009-04-07, 00:50:04,VALID,1003.38,VALID,0,VALID,94.9262,VALID,0,VALID,23.1197,VALID,356,VALID,0,
2009-04-07, 00:51:04,VALID,1003.37,VALID,0,VALID,94.8728,VALID,0,VALID,23.1002,VALID,356,VALID,0,
2009-04-07, 00:52:04,VALID,1003.35,VALID,0,VALID,94.8041,VALID,0,VALID,23.0825,VALID,356,VALID,0,
2009-04-07, 00:53:04,VALID,1003.36,VALID,0,VALID,94.8728,VALID,0,VALID,23.0807,VALID,356,VALID,0,
2009-04-07, 00:54:04,VALID,1003.32,VALID,0,VALID,94.8499,VALID,0,VALID,23.0613,VALID,356,VALID,0,
2009-04-07, 00:55:04,VALID,1003.33,VALID,0,VALID,94.8575,VALID,0,VALID,23.0807,VALID,356,VALID,0,
2009-04-07, 00:56:04,VALID,1003.3,VALID,0,VALID,94.9033,VALID,0,VALID,23.0595,VALID,356,VALID,0,
2009-04-07, 00:57:04,VALID,1003.3,VALID,0,VALID,94.9338,VALID,0,VALID,23.0807,VALID,356,VALID,0,
2009-04-07, 00:58:04,VALID,1003.27,VALID,0,VALID,94.9567,VALID,0,VALID,23.079,VALID,356,VALID,0,
2009-04-07, 00:59:04,VALID,1003.26,VALID,0,VALID,95.1016,VALID,0,VALID,23.178,VALID,356,VALID,0,
2009-04-07, 01:00:04,VALID,1003.26,VALID,0,VALID,95.0406,VALID,0,VALID,23.1568,VALID,356,VALID,0,
2009-04-07, 01:01:04,VALID,1003.24,VALID,0,VALID,95.0177,VALID,0,VALID,23.1993,VALID,356,VALID,0,
2009-04-07, 01:02:04,VALID,1003.24,VALID,0,VALID,94.9948,VALID,0,VALID,23.178,VALID,356,VALID,0,
2009-04-07, 01:03:04,VALID,1003.23,VALID,0,VALID,94.9872,VALID,0,VALID,23.178,VALID,356,VALID,0,
2009-04-07, 01:04:04,VALID,1003.24,VALID,0,VALID,95.1093,VALID,0,VALID,23.217,VALID,356,VALID,0,
2009-04-07, 01:05:04,VALID,1003.21,VALID,0,VALID,95.1016,VALID,0,VALID,23.2364,VALID,356,VALID,0.451172,
2009-04-07, 01:06:04,VALID,1003.2,VALID,0,VALID,95.1016,VALID,0,VALID,23.2559,VALID,356,VALID,0.257813,
2009-04-07, 01:07:04,VALID,1003.21,VALID,0,VALID,95.0558,VALID,0,VALID,23.2754,VALID,356,VALID,0.264062,
2009-04-07, 01:08:04,VALID,1003.19,VALID,0,VALID,95.033,VALID,0,VALID,23.2541,VALID,356,VALID,0.078125,
2009-04-07, 01:09:04,VALID,1003.18,VALID,0,VALID,94.9643,VALID,0,VALID,23.2577,VALID,356,VALID,0.169531,
2009-04-07, 01:10:04,VALID,1003.18,VALID,0,VALID,94.9185,VALID,0,VALID,23.1957,VALID,356,VALID,0.210938,
2009-04-07, 01:11:04,VALID,1003.19,VALID,0,VALID,94.9262,VALID,0,VALID,23.1957,VALID,356,VALID,0.169922,
2009-04-07, 01:12:04,VALID,1003.18,VALID,0,VALID,94.9033,VALID,0.100563,VALID,23.1763,VALID,356,VALID,0.233594,
2009-04-07, 01:13:04,VALID,1003.14,VALID,0,VALID,94.9414,VALID,0.100563,VALID,23.1957,VALID,356,VALID,0.23125,
2009-04-07, 01:14:04,VALID,1003.15,VALID,0,VALID,94.9948,VALID,0.100563,VALID,23.1957,VALID,356,VALID,0.4375,
2009-04-07, 01:15:04,VALID,1003.12,VALID,0,VALID,95.0864,VALID,0.100563,VALID,23.2347,VALID,356,VALID,0.627734,
2009-04-07, 01:16:04,VALID,1003.07,VALID,0,VALID,95.1093,VALID,0.100563,VALID,23.2736,VALID,356,VALID,0.483203,
2009-04-07, 01:17:04,VALID,1003.06,VALID,0,VALID,95.1245,VALID,0.100563,VALID,23.2931,VALID,356,VALID,0.238281,
2009-04-07, 01:18:04,VALID,1003.05,VALID,0,VALID,95.1245,VALID,0.100563,VALID,23.332,VALID,356,VALID,0.137109,
2009-04-07, 01:19:04,VALID,1003.06,VALID,0,VALID,95.1245,VALID,0.100563,VALID,23.332,VALID,356,VALID,0.132813,
2009-04-07, 01:20:04,VALID,1003.06,VALID,0,VALID,95.1169,VALID,0.100563,VALID,23.3302,VALID,356,VALID,0.104297,
2009-04-07, 01:21:04,VALID,1003.1,VALID,0,VALID,95.094,VALID,0.100563,VALID,23.3514,VALID,356,VALID,0.141406,
2009-04-07, 01:22:04,VALID,1003.1,VALID,0,VALID,95.0177,VALID,0.100563,VALID,23.332,VALID,356,VALID,0.313281,
2009-04-07, 01:23:04,VALID,1003.11,VALID,0,VALID,94.9567,VALID,0.100563,VALID,23.2931,VALID,356,VALID,0.409375,
2009-04-07, 01:24:04,VALID,1003.09,VALID,0,VALID,94.9414,VALID,0.100563,VALID,23.2524,VALID,356,VALID,0.446484,
2009-04-07, 01:25:04,VALID,1003.12,VALID,0,VALID,94.9796,VALID,0.100563,VALID,23.2329,VALID,356,VALID,0.46875,
2009-04-07, 01:26:04,VALID,1003.12,VALID,0,VALID,94.9948,VALID,0,VALID,23.2771,VALID,356,VALID,0.369922,
2009-04-07, 01:27:04,VALID,1003.1,VALID,0,VALID,94.9872,VALID,0,VALID,23.2364,VALID,356,VALID,0.349609,
2009-04-07, 01:28:04,VALID,1003.1,VALID,0,VALID,94.9948,VALID,0,VALID,23.2364,VALID,356,VALID,0.244922,
2009-04-07, 01:29:04,VALID,1003.08,VALID,0,VALID,95.0101,VALID,0,VALID,23.2364,VALID,356,VALID,0.0988281,
2009-04-07, 01:30:04,VALID,1003.06,VALID,0,VALID,95.0101,VALID,0,VALID,23.2559,VALID,356,VALID,0,
2009-04-07, 01:31:04,VALID,1003.03,VALID,0,VALID,94.9948,VALID,0,VALID,23.2364,VALID,356,VALID,0,
2009-04-07, 01:32:04,VALID,1003.04,VALID,0,VALID,94.9719,VALID,0,VALID,23.217,VALID,356,VALID,0,
2009-04-07, 01:33:04,VALID,1003.04,VALID,0,VALID,94.9262,VALID,0,VALID,23.1975,VALID,356,VALID,0,
2009-04-07, 01:34:04,VALID,1003.02,VALID,0,VALID,94.9262,VALID,0,VALID,23.178,VALID,356,VALID,0,
2009-04-07, 01:35:04,VALID,1003.05,VALID,0,VALID,94.9185,VALID,0,VALID,23.1586,VALID,356,VALID,0.325781,
2009-04-07, 01:36:04,VALID,1003.05,VALID,0,VALID,94.9719,VALID,0,VALID,23.1586,VALID,356,VALID,0.337109,
2009-04-07, 01:37:04,VALID,1003.05,VALID,0,VALID,95.033,VALID,0,VALID,23.1993,VALID,356,VALID,0.387109,
2009-04-07, 01:38:04,VALID,1003.06,VALID,0,VALID,95.0787,VALID,0,VALID,23.1975,VALID,356,VALID,0.332812,
2009-04-07, 01:39:04,VALID,1003.05,VALID,0,VALID,95.0711,VALID,0,VALID,23.1975,VALID,356,VALID,0.282031,
2009-04-07, 01:40:04,VALID,1003.05,VALID,0,VALID,95.0787,VALID,0,VALID,23.1975,VALID,356,VALID,0,
2009-04-07, 01:41:04,VALID,1003.06,VALID,0,VALID,95.0787,VALID,0,VALID,23.2382,VALID,356,VALID,0,
2009-04-07, 01:42:04,VALID,1003.05,VALID,0,VALID,95.094,VALID,0,VALID,23.2364,VALID,356,VALID,0,
2009-04-07, 01:43:04,VALID,1003.05,VALID,0,VALID,95.1093,VALID,0,VALID,23.2559,VALID,356,VALID,0.0046875,
2009-04-07, 01:44:04,VALID,1003.07,VALID,0,VALID,95.1245,VALID,0,VALID,23.2754,VALID,356,VALID,0.16875,
2009-04-07, 01:45:04,VALID,1003.06,VALID,0,VALID,95.1093,VALID,0,VALID,23.2948,VALID,356,VALID,0.222656,
2009-04-07, 01:46:04,VALID,1003.06,VALID,0,VALID,95.1169,VALID,0,VALID,23.2966,VALID,356,VALID,0.426953,
2009-04-07, 01:47:04,VALID,1003.04,VALID,0,VALID,95.0711,VALID,0,VALID,23.2347,VALID,356,VALID,0.426562,
2009-04-07, 01:48:04,VALID,1003.04,VALID,0,VALID,95.0253,VALID,0,VALID,23.2364,VALID,356,VALID,0.531641,
2009-04-07, 01:49:04,VALID,1003.04,VALID,0,VALID,94.9948,VALID,0,VALID,23.217,VALID,356,VALID,0.473437,
2009-04-07, 01:50:04,VALID,1003.02,VALID,0,VALID,94.8804,VALID,0,VALID,23.1197,VALID,356,VALID,0.498047,
2009-04-07, 01:51:04,VALID,1003.01,VALID,0,VALID,94.8422,VALID,0,VALID,23.0825,VALID,356,VALID,0.591406,
2009-04-07, 01:52:04,VALID,1002.97,VALID,0,VALID,94.8651,VALID,0,VALID,23.063,VALID,356,VALID,0.6,
2009-04-07, 01:53:04,VALID,1003,VALID,0,VALID,94.9414,VALID,0,VALID,23.0418,VALID,356,VALID,0.600781,
2009-04-07, 01:54:04,VALID,1002.99,VALID,0,VALID,95.0101,VALID,0,VALID,23.0613,VALID,356,VALID,0.503906,
2009-04-07, 01:55:04,VALID,1002.97,VALID,0,VALID,95.0482,VALID,0,VALID,23.0613,VALID,356,VALID,0.536719,
2009-04-07, 01:56:04,VALID,1002.97,VALID,0,VALID,95.0635,VALID,0.100563,VALID,23.079,VALID,356,VALID,0.499609,
2009-04-07, 01:57:04,VALID,1002.96,VALID,0,VALID,95.1245,VALID,0,VALID,23.0772,VALID,356,VALID,0.546094,
2009-04-07, 01:58:04,VALID,1002.94,VALID,0,VALID,95.155,VALID,0.100563,VALID,23.1374,VALID,356,VALID,0.429688,
2009-04-07, 01:59:04,VALID,1002.91,VALID,0,VALID,95.1474,VALID,0,VALID,23.1374,VALID,356,VALID,0.321484,
2009-04-07, 02:00:04,VALID,1002.87,VALID,0,VALID,95.1703,VALID,0.100563,VALID,23.1975,VALID,356,VALID,0.260156,
2009-04-07, 02:01:04,VALID,1002.89,VALID,0,VALID,95.1627,VALID,0.100563,VALID,23.2152,VALID,356,VALID,0.170312,
2009-04-07, 02:02:04,VALID,1002.89,VALID,0,VALID,95.1932,VALID,0.100563,VALID,23.2152,VALID,356,VALID,0.173047,
2009-04-07, 02:03:04,VALID,1002.86,VALID,0,VALID,95.1779,VALID,0.100563,VALID,23.2152,VALID,356,VALID,0.208984,
2009-04-07, 02:04:04,VALID,1002.86,VALID,0,VALID,95.1703,VALID,0.100563,VALID,23.1957,VALID,356,VALID,0.421484,
2009-04-07, 02:05:04,VALID,1002.87,VALID,0,VALID,95.0253,VALID,0.100563,VALID,23.1374,VALID,356,VALID,0.403516,
2009-04-07, 02:06:04,VALID,1002.85,VALID,0,VALID,94.9872,VALID,0.100563,VALID,23.079,VALID,356,VALID,0.237891,
2009-04-07, 02:07:04,VALID,1002.84,VALID,0,VALID,94.9796,VALID,0.100563,VALID,23.0595,VALID,356,VALID,0.250781,
2009-04-07, 02:08:04,VALID,1002.84,VALID,0,VALID,94.9948,VALID,0,VALID,23.0595,VALID,356,VALID,0.425391,
2009-04-07, 02:09:04,VALID,1002.78,VALID,0,VALID,94.9796,VALID,0,VALID,23.0418,VALID,356,VALID,0.491406,
2009-04-07, 02:10:04,VALID,1002.77,VALID,0,VALID,95.0558,VALID,0.100563,VALID,23.0401,VALID,356,VALID,0.603125,
2009-04-07, 02:11:04,VALID,1002.74,VALID,0,VALID,95.1474,VALID,0,VALID,23.0825,VALID,356,VALID,0.746094,
2009-04-07, 02:12:04,VALID,1002.75,VALID,0,VALID,95.1703,VALID,0,VALID,23.1197,VALID,356,VALID,0.735547,
2009-04-07, 02:13:04,VALID,1002.73,VALID,0,VALID,95.1703,VALID,0,VALID,23.1391,VALID,356,VALID,0.669531,
2009-04-07, 02:14:04,VALID,1002.73,VALID,0,VALID,95.1779,VALID,0,VALID,23.1197,VALID,356,VALID,0.510938,
2009-04-07, 02:15:04,VALID,1002.72,VALID,0,VALID,95.155,VALID,0,VALID,23.079,VALID,356,VALID,0.521484,
2009-04-07, 02:16:04,VALID,1002.72,VALID,0,VALID,95.1398,VALID,0,VALID,23.0807,VALID,356,VALID,0.39375,
2009-04-07, 02:17:04,VALID,1002.73,VALID,0,VALID,95.1321,VALID,0,VALID,23.0807,VALID,356,VALID,0.101172,
2009-04-07, 02:18:04,VALID,1002.73,VALID,0,VALID,95.1169,VALID,0,VALID,23.0807,VALID,356,VALID,0,
2009-04-07, 02:19:04,VALID,1002.71,VALID,0,VALID,95.0711,VALID,0,VALID,23.0613,VALID,356,VALID,0,
2009-04-07, 02:20:04,VALID,1002.71,VALID,0,VALID,95.1093,VALID,0,VALID,23.0418,VALID,356,VALID,0,
2009-04-07, 02:21:04,VALID,1002.7,VALID,0,VALID,95.094,VALID,0,VALID,23.0224,VALID,356,VALID,0,
2009-04-07, 02:22:04,VALID,1002.67,VALID,0,VALID,95.1474,VALID,0,VALID,23.0418,VALID,356,VALID,0,
2009-04-07, 02:23:04,VALID,1002.68,VALID,0,VALID,95.1703,VALID,0,VALID,23.0595,VALID,356,VALID,0,
2009-04-07, 02:24:04,VALID,1002.67,VALID,0,VALID,95.1703,VALID,0,VALID,23.079,VALID,356,VALID,0,
2009-04-07, 02:25:04,VALID,1002.7,VALID,0,VALID,95.2161,VALID,0,VALID,23.0984,VALID,356,VALID,0,
2009-04-07, 02:26:04,VALID,1002.67,VALID,0,VALID,95.2542,VALID,0,VALID,23.217,VALID,356,VALID,0.128516,
2009-04-07, 02:27:04,VALID,1002.68,VALID,0,VALID,95.2466,VALID,0,VALID,23.1975,VALID,356,VALID,0.424609,
2009-04-07, 02:28:04,VALID,1002.65,VALID,0,VALID,95.2237,VALID,0.100563,VALID,23.1568,VALID,356,VALID,0.585156,
2009-04-07, 02:29:04,VALID,1002.64,VALID,0,VALID,95.1627,VALID,0,VALID,23.0613,VALID,356,VALID,0.649609,
2009-04-07, 02:30:04,VALID,1002.65,VALID,0,VALID,95.0024,VALID,0,VALID,23.0029,VALID,356,VALID,0.655469,
2009-04-07, 02:31:04,VALID,1002.6,VALID,0,VALID,95.0024,VALID,0,VALID,22.9622,VALID,356,VALID,0.566797,
2009-04-07, 02:32:04,VALID,1002.6,VALID,0,VALID,95.094,VALID,0.100563,VALID,22.9834,VALID,356,VALID,0.551172,
2009-04-07, 02:33:04,VALID,1002.6,VALID,0,VALID,95.1398,VALID,0,VALID,23.0029,VALID,356,VALID,0.514844,
2009-04-07, 02:34:04,VALID,1002.61,VALID,0,VALID,95.1703,VALID,0,VALID,23.0046,VALID,356,VALID,0.428906,
2009-04-07, 02:35:04,VALID,1002.61,VALID,0,VALID,95.1169,VALID,0,VALID,22.964,VALID,356,VALID,0.303516,
2009-04-07, 02:36:04,VALID,1002.6,VALID,0,VALID,95.033,VALID,0,VALID,22.9445,VALID,356,VALID,0.314453,
2009-04-07, 02:37:04,VALID,1002.57,VALID,0,VALID,94.9948,VALID,0,VALID,22.8667,VALID,356,VALID,0.269531,
2009-04-07, 02:38:04,VALID,1002.62,VALID,0,VALID,95.0864,VALID,0,VALID,22.8667,VALID,356,VALID,0.198828,
2009-04-07, 02:39:04,VALID,1002.6,VALID,0,VALID,95.2008,VALID,0,VALID,22.9445,VALID,356,VALID,0.455078,
2009-04-07, 02:40:04,VALID,1002.6,VALID,0,VALID,95.2466,VALID,0,VALID,22.9817,VALID,356,VALID,0.254297,
2009-04-07, 02:41:04,VALID,1002.59,VALID,0,VALID,95.2618,VALID,0,VALID,23.0224,VALID,356,VALID,0.229297,
2009-04-07, 02:42:04,VALID,1002.55,VALID,0,VALID,95.2237,VALID,0,VALID,22.964,VALID,356,VALID,0.322266,
2009-04-07, 02:43:04,VALID,1002.56,VALID,0,VALID,95.2161,VALID,0,VALID,22.964,VALID,356,VALID,0,
2009-04-07, 02:44:04,VALID,1002.57,VALID,0,VALID,95.1855,VALID,0,VALID,22.964,VALID,356,VALID,0,
2009-04-07, 02:45:04,VALID,1002.56,VALID,0,VALID,95.2008,VALID,0,VALID,22.964,VALID,356,VALID,0,
2009-04-07, 02:46:04,VALID,1002.6,VALID,0,VALID,95.2161,VALID,0,VALID,22.9428,VALID,356,VALID,0,
2009-04-07, 02:47:04,VALID,1002.56,VALID,0,VALID,95.1855,VALID,0,VALID,22.9233,VALID,356,VALID,0,
2009-04-07, 02:48:04,VALID,1002.62,VALID,0,VALID,95.2008,VALID,0.100563,VALID,22.9445,VALID,356,VALID,0.666016,
2009-04-07, 02:49:04,VALID,1002.6,VALID,0,VALID,95.2161,VALID,0,VALID,22.964,VALID,356,VALID,0.694922,
2009-04-07, 02:50:04,VALID,1002.59,VALID,0,VALID,95.2237,VALID,0,VALID,22.9834,VALID,356,VALID,0.683203,
2009-04-07, 02:51:04,VALID,1002.57,VALID,0,VALID,95.2542,VALID,0,VALID,22.9622,VALID,356,VALID,0.546484,
2009-04-07, 02:52:04,VALID,1002.55,VALID,0,VALID,95.2389,VALID,0,VALID,23.0029,VALID,356,VALID,0.292969,
2009-04-07, 02:53:04,VALID,1002.56,VALID,0,VALID,95.2542,VALID,0,VALID,22.964,VALID,356,VALID,0.486719,
2009-04-07, 02:54:04,VALID,1002.56,VALID,0,VALID,95.2237,VALID,0,VALID,22.9251,VALID,356,VALID,0.516406,
2009-04-07, 02:55:04,VALID,1002.57,VALID,0,VALID,95.2084,VALID,0,VALID,22.9056,VALID,356,VALID,0.444922,
2009-04-07, 02:56:04,VALID,1002.58,VALID,0,VALID,95.2008,VALID,0,VALID,22.8844,VALID,356,VALID,0.429688,
2009-04-07, 02:57:04,VALID,1002.62,VALID,0,VALID,95.1779,VALID,0,VALID,22.8861,VALID,356,VALID,0.437109,
2009-04-07, 02:58:04,VALID,1002.64,VALID,0,VALID,95.1703,VALID,0,VALID,22.8667,VALID,356,VALID,0.461719,
2009-04-07, 02:59:04,VALID,1002.63,VALID,0,VALID,95.2008,VALID,0,VALID,22.8684,VALID,356,VALID,0.391016,
2009-04-07, 03:00:04,VALID,1002.63,VALID,0,VALID,95.2237,VALID,0,VALID,22.9056,VALID,356,VALID,0.367969,
2009-04-07, 03:01:04,VALID,1002.61,VALID,0,VALID,95.2466,VALID,0,VALID,22.8844,VALID,356,VALID,0.351953,
2009-04-07, 03:02:04,VALID,1002.6,VALID,0,VALID,95.2771,VALID,0,VALID,22.9445,VALID,356,VALID,0.102734,
2009-04-07, 03:03:04,VALID,1002.59,VALID,0,VALID,95.2771,VALID,0,VALID,22.9445,VALID,356,VALID,0,
2009-04-07, 03:04:04,VALID,1002.55,VALID,0,VALID,95.2771,VALID,0,VALID,22.964,VALID,356,VALID,0,
2009-04-07, 03:05:04,VALID,1002.56,VALID,0,VALID,95.3076,VALID,0,VALID,22.964,VALID,356,VALID,0,
2009-04-07, 03:06:04,VALID,1002.59,VALID,0,VALID,95.2847,VALID,0,VALID,22.964,VALID,356,VALID,0,
2009-04-07, 03:07:04,VALID,1002.57,VALID,0,VALID,95.2695,VALID,0,VALID,22.9039,VALID,356,VALID,0,
2009-04-07, 03:08:04,VALID,1002.56,VALID,0,VALID,95.2313,VALID,0,VALID,22.8861,VALID,356,VALID,0,
2009-04-07, 03:09:04,VALID,1002.57,VALID,0,VALID,95.2313,VALID,0,VALID,22.8667,VALID,356,VALID,0,
2009-04-07, 03:10:04,VALID,1002.55,VALID,0,VALID,95.1932,VALID,0,VALID,22.8278,VALID,356,VALID,0,
2009-04-07, 03:11:04,VALID,1002.55,VALID,0,VALID,95.2084,VALID,0,VALID,22.8278,VALID,356,VALID,0,
2009-04-07, 03:12:04,VALID,1002.54,VALID,0,VALID,95.2008,VALID,0,VALID,22.8083,VALID,356,VALID,0,
2009-04-07, 03:13:04,VALID,1002.59,VALID,0,VALID,95.2008,VALID,0,VALID,22.81,VALID,356,VALID,0,
2009-04-07, 03:14:04,VALID,1002.59,VALID,0,VALID,95.2313,VALID,0,VALID,22.8083,VALID,356,VALID,0,
2009-04-07, 03:15:04,VALID,1002.57,VALID,0,VALID,95.1855,VALID,0,VALID,22.7694,VALID,356,VALID,0,
2009-04-07, 03:16:04,VALID,1002.61,VALID,0,VALID,95.1932,VALID,0,VALID,22.7499,VALID,356,VALID,0,
2009-04-07, 03:17:04,VALID,1002.61,VALID,0,VALID,95.2084,VALID,0,VALID,22.7499,VALID,356,VALID,0,
2009-04-07, 03:18:04,VALID,1002.6,VALID,0,VALID,95.2084,VALID,0,VALID,22.7287,VALID,356,VALID,0,
2009-04-07, 03:19:04,VALID,1002.58,VALID,0,VALID,95.2237,VALID,0,VALID,22.7499,VALID,356,VALID,0,
2009-04-07, 03:20:04,VALID,1002.58,VALID,0,VALID,95.2466,VALID,0,VALID,22.7694,VALID,356,VALID,0,
2009-04-07, 03:21:04,VALID,1002.59,VALID,0,VALID,95.2313,VALID,0,VALID,22.7888,VALID,356,VALID,0,
2009-04-07, 03:22:04,VALID,1002.56,VALID,0,VALID,95.2847,VALID,0,VALID,22.8066,VALID,356,VALID,0,
2009-04-07, 03:23:04,VALID,1002.55,VALID,0,VALID,95.3076,VALID,0,VALID,22.8861,VALID,356,VALID,0,
2009-04-07, 03:24:04,VALID,1002.57,VALID,0,VALID,95.3305,VALID,0,VALID,22.8455,VALID,356,VALID,0,
2009-04-07, 03:25:05,VALID,1002.56,VALID,0,VALID,95.3,VALID,0,VALID,22.8472,VALID,356,VALID,0,
2009-04-07, 03:26:05,VALID,1002.54,VALID,0,VALID,95.3,VALID,0.100563,VALID,22.8455,VALID,356,VALID,0,
2009-04-07, 03:27:05,VALID,1002.55,VALID,0,VALID,95.3457,VALID,0.100563,VALID,22.9216,VALID,356,VALID,0,
2009-04-07, 03:28:05,VALID,1002.57,VALID,0,VALID,95.361,VALID,0.100563,VALID,22.9817,VALID,356,VALID,0,
2009-04-07, 03:29:05,VALID,1002.54,VALID,0,VALID,95.3686,VALID,0.100563,VALID,22.9817,VALID,356,VALID,0,
2009-04-07, 03:30:05,VALID,1002.55,VALID,0,VALID,95.361,VALID,0.100563,VALID,22.9817,VALID,356,VALID,0,
2009-04-07, 03:31:05,VALID,1002.54,VALID,0,VALID,95.3381,VALID,0.100563,VALID,22.9622,VALID,356,VALID,0,
2009-04-07, 03:32:05,VALID,1002.52,VALID,0,VALID,95.3381,VALID,0.100563,VALID,22.9428,VALID,356,VALID,0,
2009-04-07, 03:33:05,VALID,1002.52,VALID,0,VALID,95.3229,VALID,0.100563,VALID,22.9428,VALID,356,VALID,0,
2009-04-07, 03:34:05,VALID,1002.55,VALID,0,VALID,95.3152,VALID,0.100563,VALID,22.9428,VALID,356,VALID,0,
2009-04-07, 03:35:05,VALID,1002.55,VALID,0,VALID,95.3229,VALID,0.100563,VALID,22.9039,VALID,356,VALID,0,
2009-04-07, 03:36:05,VALID,1002.59,VALID,0,VALID,95.2771,VALID,0.100563,VALID,22.8455,VALID,356,VALID,0,
2009-04-07, 03:37:05,VALID,1002.57,VALID,0,VALID,95.2542,VALID,0,VALID,22.8066,VALID,356,VALID,0,
2009-04-07, 03:38:05,VALID,1002.57,VALID,0,VALID,95.2161,VALID,0.100563,VALID,22.7871,VALID,356,VALID,0,
2009-04-07, 03:39:05,VALID,1002.59,VALID,0,VALID,95.2389,VALID,0.100563,VALID,22.7854,VALID,356,VALID,0,
2009-04-07, 03:40:05,VALID,1002.6,VALID,0,VALID,95.2466,VALID,0,VALID,22.8066,VALID,356,VALID,0,
2009-04-07, 03:41:05,VALID,1002.61,VALID,0,VALID,95.2466,VALID,0,VALID,22.8066,VALID,356,VALID,0,
2009-04-07, 03:42:05,VALID,1002.61,VALID,0,VALID,95.2771,VALID,0,VALID,22.8066,VALID,356,VALID,0,
2009-04-07, 03:43:05,VALID,1002.61,VALID,0,VALID,95.2695,VALID,0,VALID,22.7871,VALID,356,VALID,0,
2009-04-07, 03:44:05,VALID,1002.61,VALID,0,VALID,95.2466,VALID,0,VALID,22.7694,VALID,356,VALID,0,
2009-04-07, 03:45:05,VALID,1002.58,VALID,0,VALID,95.2618,VALID,0,VALID,22.7305,VALID,356,VALID,0,
2009-04-07, 03:46:05,VALID,1002.59,VALID,0,VALID,95.2466,VALID,0,VALID,22.7093,VALID,356,VALID,0,
2009-04-07, 03:47:05,VALID,1002.6,VALID,0,VALID,95.2313,VALID,0,VALID,22.711,VALID,356,VALID,0,
2009-04-07, 03:48:05,VALID,1002.56,VALID,0,VALID,95.2237,VALID,0,VALID,22.6721,VALID,356,VALID,0,
2009-04-07, 03:49:05,VALID,1002.6,VALID,0,VALID,95.2466,VALID,0,VALID,22.6915,VALID,356,VALID,0,
2009-04-07, 03:50:05,VALID,1002.62,VALID,0,VALID,95.2389,VALID,0,VALID,22.6915,VALID,356,VALID,0,